{"data":{"norad_id":57386,"epoch":"2026-05-25T03:19:01.661088Z","epoch_age_seconds":53335,"freshness":"FRESH","line1":"1 57386U 23100A   26145.13821367  .00001260  00000+0  91222-4 0  9992","line2":"2 57386  99.5106 157.5001 0006538 177.1692 182.9567 15.06576720156431","mean_motion":15.0657672,"eccentricity":0.0006538,"inclination_deg":99.5106,"raan_deg":157.5001,"arg_perigee_deg":177.1692,"mean_anomaly_deg":182.9567,"bstar":9.1222e-5,"rev_number":15643,"period_min":95.580927335715,"perigee_km":542.14255072461,"apogee_km":551.19742834412,"semimajor_km":6924.8069895344,"source":"CELESTRAK","updated_at":"2026-05-25T13:38:00.036091Z"}}